Regional Weather Roundup
Issued by NWS

Home | Current Version | Previous Version | Text Only | Print | Product List | Glossary On
Versions: 1 2 3 4 5 6 7 8 9 10 11 12 13 14 15 16 17 18 19 20 21 22 23 24 25 26 27 28 29 30 31 32 33 34 35 36 37 38 39 40 41 42 43 44 45 46 47 48 49 50
000
ASUS43 KLMK 260110
RWRKY
KENTUCKY REGIONAL WEATHER ROUNDUP
NATIONAL WEATHER SERVICE LOUISVILLE KY
900 PM EDT SAT OCT 25 2014

NOTE "FAIR" INDICATES FEW OR NO CLOUDS BELOW 12,000 FEET
WITH NO SIGNIFICANT WEATHER AND/OR OBSTRUCTIONS TO VISIBILITY.

KYZ001>023-026-027-061>063-070>075-260200-
WESTERN AND SOUTH CENTRAL KENTUCKY

CITY           SKY/WX    TMP DP  RH WIND       PRES   REMARKS
PADUCAH        CLEAR     60  57  89 SW3       30.01R
HENDERSON      CLEAR    N/A N/A N/A CALM      30.00R
OWENSBORO      CLEAR     63  56  78 CALM      30.00S
HOPKINSVILLE   CLEAR     65  63  94 SW2       30.02R
BOWLING GREEN  CLEAR     67  58  72 CALM      30.01S
GLASGOW        CLEAR     59  59 100 CALM      30.01S
$$

KYZ024-025-028>034-038-045-046-053-260200-
NORTH CENTRAL KENTUCKY

CITY           SKY/WX    TMP DP  RH WIND       PRES   REMARKS
LOUISVILLE/SDF PTCLDY    67  57  70 S6G22     29.96S
LOUISVILLE/LOU CLEAR     66  56  70 SW5       29.97R
FORT KNOX      CLEAR     61  56  84 SW6       29.98S
$$

KYZ035>037-039>044-047>052-055>060-089>105-260200-
NORTHEAST KENTUCKY

CITY           SKY/WX    TMP DP  RH WIND       PRES   REMARKS
LEXINGTON      CLEAR     62  56  80 SW9       29.97S
COVINGTON      PTCLDY    67  51  56 SW6       29.92S
FRANKFORT      CLEAR     61  56  83 SW6       29.95S
$$

KYZ054-064>069-076>088-106>120-260200-
SOUTHEAST KENTUCKY

CITY           SKY/WX    TMP DP  RH WIND       PRES   REMARKS
JACKSON        CLEAR     60  53  77 VRB3      29.98F
LONDON         CLEAR     57  52  83 CALM      30.01S
SOMERSET       CLEAR     57  55  94 CALM      30.02S
MIDDLESBORO    CLEAR     53  52  95 CALM      30.02F
MONTICELLO     CLEAR     50  47  89 CALM      30.03S
$$




USA.gov is the U.S. government's official web portal to all federal, state and local government web resources and services.